Home   Weather   Cairns   Past weeks

Flag for Australia Past Weather in Cairns, Queensland, Australia — Yesterday and Last 2 Weeks

Now
90 °F

Partly sunny.


Feels Like: 92 °F
Forecast: 77 / 87 °F
Wind: 17 mph from Southeast

Location: Cairns Airport

Current Time: Dec 11, 2016 at 2:14:10 pm

Latest Report: Dec 11, 2016 at 1:00 pm


Visibility: N/A

Pressure: 29.83 "Hg

Humidity: 46%

Dew Point: 66 °F

Location of CairnsLocation

Past Weather in Cairns — Graph

°F

Cairns Temperature Yesterday

Maximum temperature yesterday: 93 °F (at 2:00 pm)
Minimum temperature yesterday: 73 °F (at 2:00 am)
Average temperature yesterday: 83 °F

High & Low Weather Summary for the Past Weeks

 TemperatureHumidityPressure
High93 °F (Dec 10, 2:00 pm)100% (Nov 29, 11:30 pm)29.95 "Hg (Nov 29, 11:30 pm)
Low66 °F (Dec 2, 4:30 am)36% (Dec 4, 4:30 pm)29.74 "Hg (Nov 29, 3:30 pm)
Average82 °F68%29.85 "Hg
* Reported Nov 26 1:00 pm — Dec 11 1:00 pm, Cairns, Weather by CustomWeather, © 2016

Note: Actual official high and low records may vary slightly from our data, if they occured in-between our weather recording intervals... More about our weather records

Advertising

Cairns Weather History for the Previous 24 Hours

Scroll right to see more
 ConditionsComfort  
Time TempWeatherWind HumidityBarometerVisibility
1:00 pm
Sun, Dec 11
90 °FPartly sunny.17 mph46%29.83 "HgN/A
12:30 pm88 °FScattered clouds.20 mph49%29.86 "HgN/A
12:00 pm88 °FPartly sunny.20 mph55%29.86 "HgN/A
11:30 am90 °FBroken clouds.16 mph52%29.86 "HgN/A
11:00 am90 °FPartly sunny.20 mph52%29.89 "HgN/A
10:30 am88 °FPartly sunny.18 mph55%29.89 "HgN/A
10:00 am88 °FPartly sunny.18 mph52%29.89 "HgN/A
9:30 am86 °FPartly sunny.18 mph55%29.89 "HgN/A
9:00 am86 °FBroken clouds.15 mph55%29.89 "HgN/A
8:30 am84 °FPartly sunny.14 mph62%29.89 "HgN/A
8:00 am82 °FPartly sunny.12 mph70%29.89 "HgN/A
7:30 am79 °FScattered showers. Broken clouds.13 mph79%29.89 "HgN/A
7:00 am79 °FSprinkles. Broken clouds.10 mph79%29.89 "HgN/A
6:30 am79 °FSprinkles. Scattered clouds.10 mph79%29.89 "HgN/A
6:00 am79 °FBroken clouds.9 mph79%29.86 "HgN/A
5:00 am77 °FSprinkles. Passing clouds.10 mph83%29.83 "HgN/A
4:30 am77 °FSprinkles. Passing clouds.9 mph83%29.83 "HgN/A
4:00 am77 °FSprinkles. Passing clouds.6 mph83%29.83 "HgN/A
3:30 am79 °FSprinkles. Passing clouds.3 mph79%29.80 "HgN/A
3:00 am79 °FScattered showers. Passing clouds.5 mph79%29.83 "HgN/A
2:00 am79 °FSprinkles. Partly cloudy.8 mph79%29.83 "HgN/A
1:30 am79 °FScattered showers. Passing clouds.7 mph79%29.83 "HgN/A
1:00 am81 °FScattered showers. Passing clouds.8 mph74%29.83 "HgN/A
12:30 am81 °FPartly cloudy.8 mph74%29.86 "HgN/A
12:00 am81 °FPassing clouds.8 mph74%29.89 "HgN/A
11:00 pm
Sat, Dec 10
81 °FScattered showers. Passing clouds.9 mph79%29.89 "HgN/A
10:30 pm81 °FSprinkles. Passing clouds.8 mph74%29.89 "HgN/A
10:00 pm81 °FPassing clouds.8 mph74%29.89 "HgN/A
9:30 pm81 °FPassing clouds.8 mph74%29.89 "HgN/A
9:00 pm82 °FPassing clouds.12 mph70%29.89 "HgN/A
8:30 pm81 °FPassing clouds.10 mph70%29.86 "HgN/A
8:00 pm81 °FPassing clouds.8 mph70%29.86 "HgN/A
7:30 pm82 °FPassing clouds.8 mph66%29.86 "HgN/A
7:00 pm82 °FPassing clouds.8 mph62%29.83 "HgN/A
6:30 pm84 °FScattered clouds.12 mph62%29.83 "HgN/A
6:00 pm84 °FScattered clouds.10 mph62%29.83 "HgN/A
5:30 pm84 °FPassing clouds.12 mph58%29.83 "HgN/A
5:00 pm86 °FScattered clouds.14 mph59%29.83 "HgN/A
4:30 pm88 °FScattered clouds.13 mph55%29.80 "HgN/A
4:00 pm88 °FScattered clouds.14 mph55%29.83 "HgN/A
3:30 pm88 °FScattered clouds.18 mph62%29.83 "HgN/A
3:00 pm88 °FScattered clouds.17 mph62%29.83 "HgN/A
2:30 pm90 °FPassing clouds.15 mph59%29.83 "HgN/A
2:00 pm93 °FPassing clouds.16 mph53%29.86 "HgN/A
Weather by CustomWeather, © 2016

See weather overviewHow to use our weather pages